Location: Asheville, NC
(35.6000°N, 82.5500°W)
Time: 03:10:00
(UTC-04:00)

Vanguard 1 - Pass Details

Date: 13 March 2018
Orbit: 650 x 3833 km, 34.3° (Epoch: 19 June)

Event Time Altitude Azimuth Distance (km) Brightness Sun altitude
Rises 07:47:38 0° 207° (SSW) 6,483 14.0 0.0°
Reaches altitude 10° 07:51:54 10° 200° (SSW) 5,842 13.9 0.8°
Maximum altitude 08:09:32 40° 138° (SE) 4,754 14.2 4.4°
Drops below altitude 10° 08:29:44 10° 79° (ENE) 6,720 15.9 8.5°
Sets 08:35:01 0° 73° (ENE) 7,509 15.8 9.5°
